Location: Monfort
(47.1967°N, 0.2115°W)
Time: 11:39:16
(UTC+00:00)

CZ-4C R/B - Pass Details

Date: 24 October 2020
Orbit: 624 x 1378 km, 63.4° (Epoch: 27 November)

Event Time Altitude Azimuth Distance (km) Brightness Sun altitude
Rises 17:38:34 0° 298° (WNW) 3,400 6.3 -7.8°
Reaches altitude 10° 17:41:41 10° 317° (NW) 2,599 5.2 -8.3°
Maximum altitude 17:45:57 19° 1° (N) 2,197 4.3 -9.0°
Drops below altitude 10° 17:50:44 10° 44° (NE) 2,981 4.6 -9.8°
Enters shadow 17:52:05 - 52° (NE) 3,340 4.8 -10.0°
